Terug naar catalogus

STARLINK-5368

ActiefCommunicatieVLEO
NORAD 54840·PAYLOAD·🇺🇸 United States

Gelanceerd Dec 28, 2022 vanaf Cape Canaveral Space Force Station

Loading…

Volgende Passages (komende 24 uur)

TLE

VersSource: CelesTrak SupGP

Epoch: Sep 14, 2026, 20:56 UTC

1 54840C 22177W   26257.87270833 -.00027169  00000+0 -98431-3 0  2571
2 54840  43.0013 144.3654 0001113 263.7186 145.4832 15.27584257    14

Volg STARLINK-5368 in realtime met AllMySat

Download on the App Store